TimeMST,TemperatureF,Dew PointF,Humidity,Sea Level PressureIn,VisibilityMPH,Wind Direction,Wind SpeedMPH,Gust SpeedMPH,PrecipitationIn,Events,Conditions,WindDirDegrees,DateUTC
12:55 AM,73.4,62.6,69,30.04,10.0,Calm,Calm,-,N/A,,Mostly Cloudy,0,2013-07-26 07:55:00
1:55 AM,71.6,62.6,73,30.03,10.0,Calm,Calm,-,N/A,,Mostly Cloudy,0,2013-07-26 08:55:00
2:55 AM,69.8,62.6,78,30.06,10.0,East,3.5,-,N/A,,Mostly Cloudy,80,2013-07-26 09:55:00
3:55 AM,69.8,62.6,78,30.07,10.0,Calm,Calm,-,N/A,,Mostly Cloudy,0,2013-07-26 10:55:00
4:55 AM,69.8,62.6,78,30.11,10.0,WNW,9.2,-,N/A,,Mostly Cloudy,300,2013-07-26 11:55:00
5:55 AM,69.8,62.6,78,30.12,10.0,SW,5.8,-,N/A,,Mostly Cloudy,230,2013-07-26 12:55:00
6:55 AM,73.4,62.6,69,30.12,10.0,Calm,Calm,-,N/A,,Mostly Cloudy,0,2013-07-26 13:55:00
7:55 AM,75.2,64.4,69,30.12,10.0,NNE,4.6,-,N/A,,Mostly Cloudy,20,2013-07-26 14:55:00
8:55 AM,80.6,64.4,58,30.12,10.0,East,5.8,-,N/A,,Mostly Cloudy,90,2013-07-26 15:55:00
9:55 AM,80.6,62.6,54,30.11,10.0,South,6.9,-,N/A,,Mostly Cloudy,190,2013-07-26 16:55:00
10:55 AM,84.2,59.0,42,30.09,10.0,West,9.2,-,N/A,,Mostly Cloudy,270,2013-07-26 17:55:00
11:55 AM,86.0,60.8,43,30.07,10.0,WNW,10.4,-,N/A,,Mostly Cloudy,300,2013-07-26 18:55:00
12:55 PM,87.8,59.0,38,30.05,10.0,WNW,9.2,-,N/A,,Mostly Cloudy,290,2013-07-26 19:55:00
1:08 PM,87.8,59.0,38,30.24,10.0,West,6.9,16.1,N/A,Thunderstorm,Mostly Cloudy,270,2013-07-26 20:08:00
1:20 PM,89.6,57.2,33,30.25,10.0,West,9.2,-,N/A,Thunderstorm,Thunderstorm,280,2013-07-26 20:20:00
1:35 PM,89.6,57.2,33,30.23,10.0,NW,8.1,19.6,N/A,Thunderstorm,Mostly Cloudy,310,2013-07-26 20:35:00
1:55 PM,82.4,59.0,45,30.04,10.0,North,16.1,-,N/A,Thunderstorm,Mostly Cloudy,10,2013-07-26 20:55:00
1:58 PM,82.4,57.2,42,30.23,10.0,North,16.1,-,N/A,Thunderstorm,Thunderstorm,360,2013-07-26 20:58:00
2:26 PM,82.4,59.0,45,30.24,10.0,NE,5.8,-,N/A,Rain-Thunderstorm,Light Thunderstorms and Rain,50,2013-07-26 21:26:00
2:55 PM,71.6,66.2,83,30.12,6.0,WSW,19.6,-,N/A,Rain-Thunderstorm,Light Thunderstorms and Rain,250,2013-07-26 21:55:00
3:55 PM,71.6,62.6,73,30.11,10.0,SW,18.4,-,N/A,Rain-Thunderstorm,Light Thunderstorms and Rain,230,2013-07-26 22:55:00
4:14 PM,71.6,64.4,78,30.25,10.0,SW,11.5,-,0.00,Rain-Thunderstorm,Light Rain,230,2013-07-26 23:14:00
4:37 PM,71.6,64.4,78,30.24,8.0,North,8.1,-,0.00,Rain-Thunderstorm,Light Thunderstorms and Rain,360,2013-07-26 23:37:00
4:56 PM,71.1,64.9,81,30.10,10.0,North,4.6,-,0.00,Rain-Thunderstorm,Light Thunderstorms and Rain,350,2013-07-26 23:56:00
5:05 PM,71.6,64.4,78,30.26,10.0,WNW,4.6,-,N/A,,Scattered Clouds,300,2013-07-27 00:05:00
5:56 PM,75.0,64.9,71,30.06,10.0,SW,4.6,-,0.00,,Clear,230,2013-07-27 00:56:00
6:56 PM,75.0,66.0,73,30.05,10.0,South,3.5,-,N/A,,Clear,180,2013-07-27 01:56:00
7:56 PM,75.0,66.0,73,30.06,10.0,Calm,Calm,-,N/A,,Clear,0,2013-07-27 02:56:00
8:56 PM,72.0,68.0,87,30.09,10.0,Calm,Calm,-,N/A,,Clear,0,2013-07-27 03:56:00
9:56 PM,72.0,69.1,91,30.09,10.0,SSW,3.5,-,N/A,,Clear,200,2013-07-27 04:56:00
10:56 PM,70.0,66.0,87,30.08,10.0,WSW,5.8,-,N/A,,Clear,240,2013-07-27 05:56:00
11:56 PM,70.0,63.0,78,30.05,10.0,WSW,3.5,-,N/A,,Clear,240,2013-07-27 06:56:00